Providence, RI

9:01 PM EDT on April 30, 2017 (GMT -0400)
Green State

Weather History for KPVD - January, 2014

Change the Weather History Date:

Friday, January 31, 2014

  Actual Average Record
Temperature  
Mean Temperature 31 °F 30 °F  
Max Temperature 45 °F 38 °F 62 °F (1988)
Min Temperature 17 °F 22 °F -6 °F (1920)
Degree Days  
Heating Degree Days 34 35  
Month to date heating degree days 1177 1109  
Since 1 July heating degree days 3256 3137  
Cooling Degree Days 0 0  
Month to date cooling degree days 0 0  
Year to date cooling degree days 0 0  
Moisture  
Dew Point 17 °F    
Average Humidity 55    
Maximum Humidity 85    
Minimum Humidity 25    
Precipitation  
Precipitation 0.00 in 0.13 in 1.21 in (1914)
Month to date precipitation 3.69 3.86  
Year to date precipitation 3.69 3.86  
Snow  
Snow 0.00 in 0.30 in 5.90 in (1931)
Month to date snowfall 15.0 9.0  
Since 1 July snowfall 22.1 19.2  
Snow Depth T in    
Sea Level Pressure  
Sea Level Pressure 30.12 in    
Wind  
Wind Speed 5 mph (WSW)    
Max Wind Speed 16 mph    
Max Gust Speed 20 mph    
Visibility 10 miles    
Events      
T = Trace of Precipitation, MM = Missing Value Source: NWS Daily Summary

Daily Weather History Graph

Daily Weather History Graph

Search for Another Location

Airport or City:

Trip Planner

Search our weather history database for the weather conditions in past years. The results will help you decide how hot, cold, wet, or windy it might be!

Date:

Astronomy

Jan. 31, 2014 Rise Set
Actual Time 6:58 AM EST 4:59 PM EST
Civil Twilight 6:29 AM EST 5:29 PM EST
Nautical Twilight 5:56 AM EST 6:02 PM EST
Astronomical Twilight 5:23 AM EST 6:35 PM EST
Moon 7:05 AM EST (1/31) 6:22 PM EST (1/31)
Length of Visible Light 11h 00m
Length of Day
10h 01m
New Moon, 1% of the Moon is Illuminated
Jan 31
New Moon
Feb 6
First Quarter
Feb 14
Full
Feb 22
Last Quarter
Mar 1
New

Hourly Weather History & Observations

Time (EST) Temp. Windchill Dew Point Humidity Pressure Visibility Wind Dir Wind Speed Gust Speed Precip Events Conditions
12:51 AM 17.1 °F - 12.0 °F 81% 30.17 in 10.0 mi Calm Calm - N/A   Clear
1:51 AM 19.0 °F - 15.1 °F 85% 30.15 in 10.0 mi Calm Calm - N/A   Clear
2:51 AM 19.9 °F - 16.0 °F 85% 30.13 in 9.0 mi Calm Calm - N/A   Mostly Cloudy
3:47 AM 21.2 °F - 17.6 °F 86% 30.10 in 9.0 mi Calm Calm - N/A   Overcast
3:51 AM 21.9 °F - 18.0 °F 85% 30.10 in 9.0 mi Calm Calm - N/A   Overcast
4:46 AM 28.4 °F 21.2 °F 23.0 °F 80% 30.09 in 10.0 mi SW 6.9 mph - N/A   Overcast
4:51 AM 28.0 °F 21.7 °F 23.0 °F 81% 30.09 in 10.0 mi WSW 5.8 mph - N/A   Overcast
5:51 AM 28.9 °F 19.8 °F 24.1 °F 82% 30.09 in 10.0 mi WSW 10.4 mph - N/A   Mostly Cloudy
6:51 AM 28.9 °F 21.9 °F 23.0 °F 78% 30.09 in 10.0 mi SW 6.9 mph - N/A   Mostly Cloudy
7:51 AM 30.0 °F 21.7 °F 21.0 °F 69% 30.09 in 10.0 mi WSW 9.2 mph - N/A   Mostly Cloudy
8:51 AM 30.9 °F 22.8 °F 18.0 °F 59% 30.11 in 10.0 mi SW 9.2 mph - N/A   Overcast
9:51 AM 33.1 °F 26.1 °F 12.9 °F 43% 30.11 in 10.0 mi WSW 8.1 mph - N/A   Mostly Cloudy
10:51 AM 35.1 °F 29.3 °F 10.9 °F 37% 30.10 in 10.0 mi WSW 6.9 mph - N/A   Overcast
11:51 AM 37.9 °F 30.9 °F 9.0 °F 30% 30.08 in 10.0 mi WNW 10.4 mph - N/A   Mostly Cloudy
12:51 PM 41.0 °F 35.2 °F 9.0 °F 27% 30.06 in 10.0 mi West 9.2 mph - N/A   Scattered Clouds
1:51 PM 43.0 °F - 10.9 °F 27% 30.05 in 10.0 mi Calm Calm - N/A   Scattered Clouds
2:51 PM 42.1 °F 35.7 °F 14.0 °F 32% 30.08 in 10.0 mi WNW 11.5 mph - N/A   Mostly Cloudy
3:51 PM 41.0 °F 35.8 °F 15.1 °F 35% 30.08 in 10.0 mi West 8.1 mph - N/A   Mostly Cloudy
4:51 PM 39.9 °F 35.8 °F 16.0 °F 38% 30.08 in 10.0 mi WNW 5.8 mph - N/A   Mostly Cloudy
5:51 PM 37.9 °F 34.4 °F 17.1 °F 43% 30.12 in 10.0 mi WSW 4.6 mph - N/A   Mostly Cloudy
6:51 PM 37.0 °F - 18.0 °F 46% 30.14 in 10.0 mi Calm Calm - N/A   Mostly Cloudy
7:51 PM 37.0 °F 32.4 °F 17.1 °F 44% 30.17 in 10.0 mi West 5.8 mph - N/A   Overcast
8:51 PM 36.0 °F 32.1 °F 18.0 °F 48% 30.18 in 10.0 mi West 4.6 mph - N/A   Overcast
9:51 PM 35.1 °F - 19.0 °F 52% 30.19 in 10.0 mi Calm Calm - N/A   Overcast
10:51 PM 35.1 °F 32.2 °F 19.0 °F 52% 30.21 in 10.0 mi West 3.5 mph - N/A   Overcast
11:51 PM 34.0 °F 31.0 °F 19.9 °F 56% 30.22 in 10.0 mi SW 3.5 mph - N/A   Overcast